Date String (YYYY-MM-DD hh:mm:ss) UTC,Instrument flags,absolute air pressure of the measurement (hPa),sample flow rate (lpm),inlet stack bypass flow (lpm),air temperature of the measurement (°C),ambient temperature measured by the external sensor (°C),aerosol sample conditioner tube jacket temperature (°C),OPC LED temperature (°C),internal box temperature (°C),relative humidity of the measurement (%),span deviation,mass concentration of particles derived from Lorenz-Mie calculation of OPC scattering (μg/m³),mass concentration of particles derived from Lorenz-Mie calculation of OPC scattering (μg/m³),mass concentration of particles derived from Lorenz-Mie calculation of OPC scattering (μg/m³)
DateTimeUTC,F1_M11,P_M11,Q1_M11,Q2_M11,T1_M11,T2_M11,T3_M11,T4_M11,T5_M11,U1_M11,ZSPAN_M11,X0_M11,X2_M11,X1_M11
2024-03-13 13:00:00,SystemResetWarning,0821.1,5.00,000.00,020.5,019.8,000.0,029.1,022.3,23.3,0000.0,0010.22,0004.08,0003.16
2024-03-13 13:01:00,SystemResetWarning,0821.1,5.00,000.00,020.5,019.8,000.0,029.1,022.3,23.3,0000.0,0009.71,0004.06,0003.15
2024-03-13 13:02:00,SystemResetWarning,0821.2,5.00,000.00,020.5,019.8,000.0,029.1,022.3,23.4,0000.0,0009.75,0004.04,0003.15
2024-03-13 13:03:00,SystemResetWarning,0821.1,5.00,000.00,020.5,019.8,000.0,029.0,022.3,23.4,0000.0,0009.76,0004.06,0003.15
2024-03-13 13:04:00,SystemResetWarning,0821.1,4.99,000.00,020.5,019.8,000.0,029.0,022.3,23.4,0000.0,0009.71,0004.08,0003.14
2024-03-13 13:05:00,SystemResetWarning,0821.1,5.00,000.00,020.5,019.8,000.0,029.0,022.3,23.4,0000.0,0010.59,0004.09,0003.13
2024-03-13 13:06:00,SystemResetWarning,0821.2,5.00,000.00,020.5,019.8,000.0,029.0,022.3,23.5,0000.0,0010.41,0004.08,0003.13
2024-03-13 13:07:00,SystemResetWarning,0821.1,5.00,000.00,020.5,019.8,000.0,029.0,022.3,23.5,0000.0,0010.00,0004.11,0003.12
2024-03-13 13:08:00,SystemResetWarning,0821.2,5.00,000.00,020.4,019.8,000.0,029.0,022.3,23.5,0000.0,0009.95,0004.09,0003.11
2024-03-13 13:09:00,SystemResetWarning,0821.2,5.01,000.00,020.4,019.8,000.0,029.0,022.3,23.5,0000.0,0010.16,0004.11,0003.10
2024-03-13 13:10:00,SystemResetWarning,0821.2,5.01,000.00,020.4,019.8,000.0,029.0,022.3,23.5,0000.0,0009.70,0004.11,0003.10
2024-03-13 13:11:00,SystemResetWarning,0821.2,5.01,000.00,020.4,019.8,000.0,029.0,022.3,23.5,0000.0,0009.72,0004.11,0003.08
2024-03-13 13:12:00,SystemResetWarning,0821.3,5.00,000.00,020.4,019.8,000.0,029.0,022.3,23.6,0000.0,0009.91,0004.10,0003.10
2024-03-13 13:13:00,SystemResetWarning,0821.3,5.00,000.00,020.4,019.8,000.0,029.0,022.3,23.5,0000.0,0009.72,0004.13,0003.10
2024-03-13 13:14:00,SystemResetWarning,0821.3,4.99,000.00,020.4,019.8,000.0,029.0,022.3,23.5,0000.0,0009.66,0004.11,0003.10
2024-03-13 13:15:00,SystemResetWarning,0821.3,5.00,000.00,020.4,019.8,000.0,029.0,022.3,23.5,0000.0,0009.90,0004.10,0003.11
2024-03-13 13:16:00,SystemResetWarning,0821.3,5.00,000.00,020.4,019.8,000.0,029.0,022.2,23.5,0000.0,0010.17,0004.18,0003.12
2024-03-13 13:17:00,SystemResetWarning,0821.3,4.99,000.00,020.4,019.8,000.0,029.0,022.2,23.6,0000.0,0010.70,0004.23,0003.13
2024-03-13 13:18:00,SystemResetWarning,0821.3,5.00,000.00,020.4,019.8,000.0,029.0,022.2,23.6,0000.0,0011.12,0004.23,0003.14
2024-03-13 13:19:00,SystemResetWarning,0821.3,4.99,000.00,020.4,019.8,000.0,029.0,022.2,23.5,0000.0,0011.32,0004.26,0003.14
2024-03-13 13:20:00,SystemResetWarning,0821.3,5.01,000.00,020.4,019.8,000.0,029.0,022.2,23.7,0000.0,0011.53,0004.31,0003.15
2024-03-13 13:21:00,SystemResetWarning,0821.3,5.02,000.00,020.4,019.8,000.0,029.0,022.2,24.0,0000.0,0011.89,0004.33,0003.16
2024-03-13 13:22:00,SystemResetWarning,0821.3,5.00,000.00,020.4,019.8,000.0,029.0,022.2,24.2,0000.0,0012.18,0004.33,0003.16
2024-03-13 13:23:00,SystemResetWarning,0821.2,4.98,000.00,020.4,019.8,000.0,029.0,022.2,24.3,0000.0,0012.41,0004.37,0003.15
2024-03-13 13:24:00,SystemResetWarning,0821.2,5.00,000.00,020.4,019.8,000.0,029.0,022.2,24.5,0000.0,0012.92,0004.38,0003.15
2024-03-13 13:25:00,SystemResetWarning,0821.2,5.01,000.00,020.4,019.7,000.0,029.0,022.2,24.8,0000.0,0013.74,0004.40,0003.15
2024-03-13 13:26:00,SystemResetWarning,0821.2,5.01,000.00,020.4,019.7,000.0,029.0,022.2,25.0,0000.0,0014.09,0004.43,0003.15
2024-03-13 13:27:00,SystemResetWarning,0821.2,5.01,000.00,020.4,019.7,000.0,029.0,022.2,25.1,0000.0,0013.05,0004.39,0003.15
2024-03-13 13:28:00,SystemResetWarning,0821.2,5.00,000.00,020.4,019.7,000.0,029.0,022.2,25.2,0000.0,0012.93,0004.36,0003.14
2024-03-13 13:29:00,SystemResetWarning,0821.2,4.99,000.00,020.4,019.7,000.0,029.0,022.2,25.2,0000.0,0012.79,0004.33,0003.14
2024-03-13 13:30:00,SystemResetWarning,0821.2,4.99,000.00,020.4,019.7,000.0,029.0,022.2,25.2,0000.0,0013.04,0004.31,0003.13
2024-03-13 13:31:00,SystemResetWarning,0821.2,5.01,000.00,020.4,019.7,000.0,028.9,022.2,25.3,0000.0,0013.46,0004.27,0003.13
2024-03-13 13:32:00,SystemResetWarning,0821.2,5.01,000.00,020.4,019.7,000.0,029.0,022.2,25.3,0000.0,0013.10,0004.22,0003.13
2024-03-13 13:33:00,SystemResetWarning,0821.3,4.99,000.00,020.4,019.7,000.0,028.9,022.2,25.3,0000.0,0012.90,0004.20,0003.13
2024-03-13 13:34:00,SystemResetWarning,0821.2,5.00,000.00,020.4,019.7,000.0,028.9,022.2,25.3,0000.0,0012.68,0004.21,0003.13
2024-03-13 13:35:00,SystemResetWarning,0821.2,5.00,000.00,020.4,019.7,000.0,028.9,022.2,25.3,0000.0,0012.05,0004.22,0003.14
2024-03-13 13:36:00,SystemResetWarning,0821.2,5.00,000.00,020.4,019.7,000.0,028.9,022.2,25.3,0000.0,0012.45,0004.27,0003.15
2024-03-13 13:37:00,SystemResetWarning,0821.2,5.01,000.00,020.4,019.7,000.0,028.9,022.2,25.4,0000.0,0012.75,0004.32,0003.16
2024-03-13 13:38:00,SystemResetWarning,0821.2,5.00,000.00,020.4,019.7,000.0,028.9,022.2,25.4,0000.0,0012.88,0004.33,0003.18
2024-03-13 13:39:00,SystemResetWarning,0821.2,4.99,000.00,020.4,019.7,000.0,028.9,022.2,25.5,0000.0,0013.60,0004.33,0003.19
2024-03-13 13:40:00,SystemResetWarning,0821.2,5.00,000.00,020.4,019.7,000.0,028.9,022.2,25.5,0000.0,0014.47,0004.38,0003.20
2024-03-13 13:41:00,SystemResetWarning,0821.2,5.00,000.00,020.4,019.7,000.0,028.9,022.2,25.5,0000.0,0014.71,0004.42,0003.20
2024-03-13 13:42:00,SystemResetWarning,0821.2,5.00,000.00,020.4,019.7,000.0,028.9,022.2,25.5,0000.0,0014.44,0004.45,0003.21
2024-03-13 13:43:00,SystemResetWarning,0821.2,5.01,000.00,020.4,019.7,000.0,028.9,022.2,25.6,0000.0,0014.75,0004.47,0003.21
2024-03-13 13:44:00,SystemResetWarning,0821.1,5.00,000.00,020.4,019.7,000.0,028.9,022.2,25.6,0000.0,0014.72,0004.50,0003.22
2024-03-13 13:45:00,SystemResetWarning,0821.1,5.00,000.00,020.4,019.7,000.0,028.9,022.2,25.7,0000.0,0015.56,0004.49,0003.23
2024-03-13 13:46:00,SystemResetWarning,0821.1,4.99,000.00,020.4,019.7,000.0,028.9,022.2,25.8,0000.0,0015.83,0004.51,0003.23
2024-03-13 13:47:00,SystemResetWarning,0821.2,4.99,000.00,020.4,019.7,000.0,028.9,022.2,26.5,0000.0,0015.22,0004.47,0003.23
2024-03-13 13:48:00,SystemResetWarning,0821.1,5.00,000.00,020.4,019.7,000.0,028.9,022.2,27.2,0000.0,0015.15,0004.43,0003.24
2024-03-13 13:49:00,SystemResetWarning,0821.1,5.01,000.00,020.4,019.7,000.0,028.9,022.2,26.9,0000.0,0014.93,0004.41,0003.24
2024-03-13 13:50:00,SystemResetWarning,0821.1,5.01,000.00,020.4,019.7,000.0,028.9,022.2,26.8,0000.0,0013.84,0004.41,0003.24
2024-03-13 13:51:00,SystemResetWarning,0821.1,5.00,000.00,020.4,019.7,000.0,028.9,022.2,26.8,0000.0,0012.87,0004.39,0003.24
2024-03-13 13:52:00,SystemResetWarning,0821.2,4.99,000.00,020.4,019.7,000.0,028.9,022.2,26.9,0000.0,0012.75,0004.39,0003.25
2024-03-13 13:53:00,SystemResetWarning,0821.2,5.01,000.00,020.3,019.7,000.0,028.9,022.2,26.9,0000.0,0012.92,0004.37,0003.25
2024-03-13 13:54:00,SystemResetWarning,0821.2,5.01,000.00,020.3,019.7,000.0,028.9,022.2,26.9,0000.0,0013.14,0004.37,0003.25
2024-03-13 13:55:00,SystemResetWarning,0821.3,5.00,000.00,020.3,019.7,000.0,028.9,022.2,27.0,0000.0,0014.26,0004.36,0003.26
2024-03-13 13:56:00,SystemResetWarning,0821.4,5.00,000.00,020.3,019.7,000.0,028.9,022.2,27.0,0000.0,0013.41,0004.34,0003.27
2024-03-13 13:57:00,SystemResetWarning,0821.5,4.99,000.00,020.3,019.7,000.0,028.9,022.2,27.0,0000.0,0013.11,0004.31,0003.27
2024-03-13 13:58:00,SystemResetWarning,0821.6,5.00,000.00,020.3,019.7,000.0,028.9,022.2,27.0,0000.0,0012.72,0004.28,0003.27
2024-03-13 13:59:00,SystemResetWarning,0821.5,5.00,000.00,020.3,019.7,000.0,028.9,022.2,27.0,0000.0,0011.65,0004.27,0003.28
